Weather Roundup
Issued by NWS Springfield, MO

Home | Current Version | Previous Version | Text Only | Print | Product List | Glossary On
Versions: 1 2 3 4 5 6 7 8 9 10 11 12 13 14 15 16 17 18 19 20 21 22 23 24 25 26 27 28 29 30 31 32 33 34 35 36 37 38 39 40 41 42 43 44 45 46 47 48 49 50
000
NZUS99 KSGF 020207
HRRSGF

HOURLY WEATHER
NATIONAL WEATHER SERVICE SPRINGFIELD MO
800 PM CST SUN FEB 01 2015

......SGF CWA......

CITY           SKY/WX    TMP DP  RH WIND       PRES   REMARKS
SPRINGFIELD    CLOUDY    23  17  78 NW16G25   30.03R WCI  10
JOPLIN         FLURRIES  20  12  71 NW23G31   30.15R WCI   3
WEST PLAINS    CLOUDY    29  24  82 NW10G22   29.92R WCI  20
ROLLA          CLOUDY    30  26  85 NW18G32   29.87R WCI  18
OSAGE BEACH    CLOUDY    27  19  74 NW10G24   29.97R WCI  17
BRANSON        CLOUDY    25  18  74 NW8G26    30.04R WCI  16

......SURROUNDING SGF CWA......

CITY           SKY/WX    TMP DP  RH WIND       PRES   REMARKS
CHANUTE        CLOUDY    16   8  71 NW16G28   30.22R WCI   1
PARSONS        CLOUDY    18   9  68 NW23G31   30.24R WCI   0
COFFEYVILLE    CLOUDY    19  10  68 NW20      30.24R WCI   3
EMPORIA        CLOUDY    11   5  77 NW28G35   30.24R WCI -10
GROVE OK       CLOUDY    25  16  68 NW20G26   30.20R WCI  11
ROGERS AR      FLURRIES  21  16  81 NW18G29   30.10R WCI   6
SILOAM SPRINGS CLOUDY    21  10  63 NW21      30.15R WCI   6
HARRISON AR    CLOUDY    25  20  81 NW21G30   30.01R WCI  11
NEAR YELLVILLE CLOUDY    30  19  64 NW17G31   30.01R WCI  18

......KANSAS AND MISSOURI......

CITY           SKY/WX    TMP DP  RH WIND       PRES   REMARKS
KANSAS CTY INT LGT SNOW  17  13  84 N18G26    30.14R FOG     WCI   1
DOWNTOWN KC    FLURRIES  21  13  71 N15G30    30.15R WCI   8
COLUMBIA       LGT SNOW  24  21  88 NW26G32   29.96R FOG     WCI   8
SEDALIA        LGT SNOW  23  17  78 NW24G33   30.06R WCI   7
ST JOSEPH      LGT SNOW  16  12  84 N20       30.19R FOG     WCI  -1
ST LOUIS       LGT SNOW  32  27  81 NW17G29   29.82R WCI  21
SPIRIT OF STL  CLOUDY    30  25  81 NW17      29.85R WCI  18
KIRKSVILLE     LGT SNOW  17  14  88 N20G29    30.03R FOG     WCI   1
WICHITA        FLURRIES  16   7  67 N30G37    30.28R WCI  -4
TOPEKA         FLURRIES  13   6  74 NW20G31   30.25R WCI  -5
OLATHE         LGT SNOW  16  12  84 NW15G26   30.13R FOG     WCI   1

......TENNESSEE......

CITY           SKY/WX    TMP DP  RH WIND       PRES   REMARKS
MEMPHIS        CLOUDY    45  37  73 NW16G22   29.86R
NASHVILLE      LGT RAIN  55  52  89 W16G26    29.66R

......ARKANSAS.......

CITY           SKY/WX    TMP DP  RH WIND       PRES   REMARKS
FAYETTEVILLE   CLOUDY    23  16  74 NW18G25   30.11R WCI   9
FT SMITH       CLOUDY    30  17  58 NW23G35   30.16R WCI  17
LITTLE ROCK    CLOUDY    41  28  60 W20G29    29.99R

......OKLAHOMA.......

CITY           SKY/WX    TMP DP  RH WIND       PRES   REMARKS
TULSA          CLOUDY    24  12  60 NW24G31   30.25R WCI   8
PONCA CITY     CLOUDY    22  12  65 N20G28    30.29R WCI   7
MCALESTER      MOCLDY    31  19  61 NW15G24   30.22R WCI  20
OKLAHOMA CITY  FAIR      28  15  58 N24G38    30.25R WCI  14

......IOWA............

CITY           SKY/WX    TMP DP  RH WIND       PRES   REMARKS
DES MOINES     LGT SNOW  14   8  77 N14G22    30.17R WCI  -1
QUAD CITIES    LGT SNOW  15  10  80 N15G24    29.97R WCI   0

......ILLINOIS........

CITY           SKY/WX    TMP DP  RH WIND       PRES   REMARKS
QUINCY         LGT SNOW  19  15  84 N25       29.92R VSB 1   WCI   1
CHICAGO        HVY SNOW  20  19  96 NE22G35   29.80S VSB 1/4 WCI   3



USA.gov is the U.S. government's official web portal to all federal, state and local government web resources and services.